Regional Weather Roundup
Issued by NWS

Home | Current Version | Previous Version | Text Only | Print | Product List | Glossary Off
Versions: 1 2 3 4 5 6 7 8 9 10 11 12 13 14 15 16 17 18 19 20 21 22 23 24 25 26 27 28 29 30 31 32 33 34 35 36 37 38 39 40 41 42 43 44 45 46 47 48 49 50

000
ASUS43 KLOT 012300
RWRIL

ILLINOIS REGIONAL WEATHER ROUNDUP
NATIONAL WEATHER SERVICE CHICAGO/ROMEOVILLE IL
600 PM CDT WED OCT 01 2014

NOTE: "FAIR" INDICATES FEW OR NO CLOUDS BELOW 12,000 FEET WITH NO
SIGNIFICANT WEATHER AND/OR OBSTRUCTIONS TO VISIBILITY.

* THESE STATIONS ARE NOT UNDER NWS QUALITY CONTROL. THEY ALSO MAY NOT
  REPORT WEATHER SUCH AS PRECIPITATION OR FOG.

ILZ001-002-007-009-015-016-024-020000-
NORTHWEST ILLINOIS

CITY           SKY/WX    TMP DP  RH WIND       PRES   REMARKS
MOLINE         MOCLDY    70  60  70 SW3       29.82R
$$

ILZ003-004-008-010-011-017-018-020000-
NORTH CENTRAL ILLINOIS

CITY           SKY/WX    TMP DP  RH WIND       PRES   REMARKS
ROCKFORD       CLOUDY    71  55  56 SE7       29.86S
FREEPORT*      CLOUDY    69  56  63 E3        29.86R
$$

ILZ005-006-012>014-019>023-020000-
NORTHEAST ILLINOIS

CITY           SKY/WX    TMP DP  RH WIND       PRES   REMARKS
CHICAGO-OHARE  MOCLDY    67  53  61 E13       29.89S
CHICAGO-MIDWAY NOT AVBL
AURORA         CLOUDY    71  55  56 E10       29.87R
LANSING*       PTCLDY    67  54  62 SE8       29.91R
WAUKEGAN       NOT AVBL
DUPAGE AIRPORT MOCLDY    69  55  60 SE9       29.88S
WHEELING       PTCLDY    65  53  65 E5        29.92R
NORTHERLY ISL    N/A     64  58  80 SE6         N/A
$$

LMZ740>746-020000-
SOUTHERN LAKE MICHIGAN

STATION/POSITION SKY/WX   TEMP    WIND        PRES    VSBY  WAVE
                          AIR SEA DIR/SP/G                  HT/PER
                          (F)     (DEG/KT/KT) (MB)    (MI)  (FT/S)
SOUTHERN BUOY              60 61  110/ 12/ 14 1013.9S         2/ 3
WAUKEGAN HARBOR            60     110/ 10/ 11   N/A
HARRISON CRIB              63      90/ 12/ 14   N/A
CALUMET HARBOR             69     120/  8/ 10 1011.2F
MICHIGAN CITY              67     120/ 10/ 14   N/A
$$

ILZ025>027-034>036-040-047-049-050-058-095>099-020000-
WEST-CENTRAL ILLINOIS

CITY           SKY/WX    TMP DP  RH WIND       PRES   REMARKS
QUINCY         TSTM      65  64  97 E6        29.84S FOG
$$

ILZ028>032-037-038-041>044-048-051>054-059>061-020000-
CENTRAL ILLINOIS

CITY           SKY/WX    TMP DP  RH WIND       PRES   REMARKS
BLOOMINGTON    CLEAR     75  60  59 S7          N/A
DECATUR        MOCLDY    78  60  53 SE9       29.86S
PEORIA         LGT RAIN  71  65  81 W5        29.86R
SPRINGFIELD    LGT RAIN  79  63  57 E6        29.82F HX  80
TAYLORVILLE    NOT AVBL
$$

ILZ033-039-045-046-055>057-062-063-020000-
EAST-CENTRAL ILLINOIS

CITY           SKY/WX    TMP DP  RH WIND       PRES   REMARKS
MATTOON        PTCLDY    75  57  53 SE5       29.87S
$$

ILZ079-100>102-020000-
SOUTHWEST ILLINOIS

CITY           SKY/WX    TMP DP  RH WIND       PRES   REMARKS
BELLEVILLE     PTCLDY    82  65  56 E7        29.80F HX  84
CAHOKIA*       PTCLDY    84  63  49 S9        29.80R HX  85
SPARTA*        CLEAR     82  63  51 S10       29.83F HX  83
$$

ILZ064>066-069>071-074>076-080>082-084>086-088>090-092>094-020000-
SOUTH-CENTRAL ILLINOIS

CITY           SKY/WX    TMP DP  RH WIND       PRES   REMARKS
CARBONDALE     CLEAR     81  62  52 S8        29.86S HX  82
MARION         CLEAR     84  63  48 S8        29.87F HX  85
$$

ILZ067-068-072-073-078-083-087-091-020000-
SOUTHEAST ILLINOIS

CITY           SKY/WX    TMP DP  RH WIND       PRES   REMARKS
LAWRENCEVILLE  CLEAR     81  57  43 S7        29.90R HX  81
ROBINSON*      CLEAR     78  61  54 S6        29.90R HX  80
$$

ABBREVIATIONS USED IN REMARKS
   TC - TEMPERATURE IN CELSIUS
  WCI - WIND CHILL INDEX
   HX - HEAT INDEX
  VSB - VISIBILITY
$$




USA.gov is the U.S. government's official web portal to all federal, state and local government web resources and services.